Location: Seattle
(47.6064°N, 122.3308°W)
Time: 01:40:41
(UTC-08:00)

A-11 Canister half - Pass Details

Date: 28 November 2020
Orbit: 1524 x 1684 km, 47.3° (Epoch: 27 January)

Event Time Altitude Azimuth Distance (km) Brightness Sun altitude
Rises 04:59:13 0° 206° (SSW) 4,924 11.5 -25.3°
Reaches altitude 10° 05:02:43 10° 198° (SSW) 3,940 11.0 -24.7°
Maximum altitude 05:11:32 36° 137° (SE) 2,454 10.4 -23.3°
Drops below altitude 10° 05:20:14 10° 76° (ENE) 3,900 12.1 -21.8°
Sets 05:23:40 0° 69° (ENE) 4,869 12.6 -21.2°
